Location: La Brionne
(46.1728°N, 1.7849°E)
Time: 20:23:55
(UTC+00:00)

USA 267 - Pass Details

Date: 25 October 2021
Orbit: 1101 x 1107 km, 123.0° (Epoch: 27 November)

Event Time Altitude Azimuth Distance (km) Brightness Sun altitude
Rises 17:11:58 0° 117° (ESE) 3,910 5.7 -4.6°
Reaches altitude 10° 17:14:26 10° 116° (ESE) 2,954 5.1 -5.1°
Maximum altitude 17:20:56 74° 33° (NNE) 1,144 3.3 -6.2°
Drops below altitude 10° 17:27:27 10° 309° (NW) 2,964 6.1 -7.3°
Sets 17:29:56 0° 308° (NW) 3,924 6.8 -7.7°
